THORAD DELTA 1 DEB, 8596

Orbit data source: Space-Track

THORAD DELTA 1 DEB, 8596 is space debris in SSO originally from a launch on Fri, 15 Nov 1974 UTC launched from the Air Force Western Test Range (AFWTR). Debris objects in space refer to the collection of defunct objects orbiting the Earth. Examples of debris include non-operational satellites, rocket bodies, and fragments generated from explosions, collisions, or faulty payload assembly.

Loading next visibility...
Identifier
8596, 1974-089DK
Orbit
SSO
Country
Flag of USUS
Related business
Manufacturer
Unknown
Mission
Spacecraft
Bus & Motor
Unknown
Mass
Unknown
Launch date (UTC)
1974-11-15 (51 years ago)
Launch vehicle
Unknown
Launch site
Air Force Western Test Range (AFWTR)
Object type
Payload
Rocket body
Debris
Shape & HBR
Unknown shape, 0.1 m
Radar Cross Section
Small (<0.1 m²)

Expand to show TLE details & history
Last TLE update: 12 hours ago

TLE from 12 hours ago
0 THORAD DELTA 1 DEB
1 08596U 74089DK  26023.57115461  .00000009  00000-0  28454-3 0  9994
2 08596 101.7919 252.3993 0088061 236.2207 138.4040 12.68823479368485
Epoch: 2026-01-23T13:42Z
TLE epoch observation values (Epoch: 2026-01-23T13:42:27.758Z)
Latitude
14.9374°
Longitude
-79.30136°
Altitude
1,440.047 km
Speed
7.119 km/s
True Right ascension
16h 36m 53s
True Declination
14° 51' 34"
Sunlit
Object was in daylight at epoch
Visualization orbit readout
Latitude
Unknown
Longitude
Unknown
Altitude
Unknown
Speed
Unknown
Apparent Right ascension
Unknown
Apparent Declination
Unknown
Sunlit
N/A
Visualization observer readout
Local Sidereal Time
03:04:10
Azimuth
Unknown
Elevation
Unknown
Doppler factor
Unknown
Orbital elements
Apogee altitude
1,452.617 km
Perigee altitude
1,315.904 km
Semi-major axis
7,762.398 km
Eccentricity
0.00881
Inclination
101.7919°
RAAN
252.3993°
Arg. of periapsis
236.2207°
True anomaly
139.06843°
Mean anomaly
138.404°
Eccentric anomaly
138.73676°
Mean motion
3.17358 °/min
Orbital period
113.44 mins
BSTAR
0.00028454
Loading maneuver chart data...
Computing Atmospheric mass density...

Documentation

Showing up to 5 results
|